Location: Newark
(50.4348°N, 30.5552°E)
Time: 17:20:22
(UTC+00:00)

Courier 1B - Visible Passes

Search period start: 26 January 2020 00:00
Search period end: 05 February 2020 00:00
Orbit: 962 x 1209 km, 28.3° (Epoch: 26 January)

Date Brightness Start Highest point End Pass type
(mag) Time Alt. Az. Time Alt. Az. Time Alt. Az.
26 Jan 9.8 02:41:06 12° S 02:42:20 12° S 02:45:08 10° SSE visible
27 Jan 10.0 01:50:41 11° SSE 01:50:41 11° SSE 01:51:25 10° SSE visible
28 Jan 9.8 02:47:11 11° SSW 02:47:58 11° S 02:49:43 10° S visible
